IW2NIA-3 Weather Reports


time (UTC)temp
C
wind
direction
speed
KPH
gust
KPH
rain 1hr
cm
rain 24hr
cm
rain mn
cm
humidity
%
barometer
mb
20260505211840 12 161 0.0 6.4 0.00 1.80 1.80 96 1011.8
20260505210332 12 186 1.6 4.8 0.00 1.80 1.80 96 1011.8
20260505204836 12 147 3.2 4.8 0.03 1.80 1.80 96 1011.9
20260505203335 12 204 0.0 6.4 0.03 1.80 1.80 96 1011.9
20260505201845 12 171 1.6 6.4 0.03 1.80 1.80 96 1012.0
20260505200336 12 182 4.8 8.0 0.03 1.80 1.80 96 1012.0
20260505194828 12 167 4.8 11.3 0.00 1.78 1.78 96 1011.9
20260505193341 12 186 1.6 6.4 0.00 1.78 1.78 96 1011.8
20260505191834 12 161 1.6 6.4 0.00 1.78 1.78 96 1011.8
20260505190342 12 161 0.0 4.8 0.03 1.78 1.78 96 1011.7
20260505184829 12 182 4.8 11.3 0.05 1.78 1.78 96 1011.4
20260505183346 12 179 1.6 9.7 0.15 1.78 1.78 95 1011.4
20260505181837 12 154 1.6 8.0 0.33 1.78 1.78 95 1011.3
20260505180330 12 186 3.2 6.4 0.33 1.75 1.75 95 1011.4
20260505174839 12 138 9.7 11.3 0.30 1.73 1.73 95 1011.4
20260505173330 12 131 4.8 6.4 0.23 1.63 1.63 95 1011.4
20260505171846 12 180 3.2 11.3 0.08 1.45 1.45 95 1011.4
20260505170341 12 194 1.6 16.1 0.05 1.42 1.42 95 1011.5
20260505164835 13 123 3.2 11.3 0.08 1.42 1.42 95 1011.5
20260505163348 13 150 3.2 8.0 0.05 1.40 1.40 95 1011.5
20260505161841 13 136 8.0 14.5 0.03 1.37 1.37 95 1011.6
20260505160336 13 123 3.2 8.0 0.03 1.37 1.37 94 1011.6
20260505153342 13 136 8.0 9.7 0.03 1.35 1.35 94 1011.8
20260505151843 13 130 1.6 9.7 0.03 1.35 1.35 94 1011.7
20260505150340 13 122 4.8 9.7 0.03 1.35 1.35 94 1011.9
20260505140336 13 127 0.0 11.3 0.00 1.32 1.32 93 1012.0
20260505124848 12 113 3.2 9.7 0.00 1.32 1.32 93 1012.4
20260505123343 12 117 3.2 8.0 0.03 1.32 1.32 93 1012.4
20260505121838 12 118 0.0 6.4 0.05 1.32 1.32 93 1012.4
20260505120337 12 120 0.0 4.8 0.08 1.32 1.32 93 1012.4
20260505114846 12 63 3.2 4.8 0.10 1.32 1.32 93 1012.5
20260505113340 12 127 0.0 6.4 0.10 1.30 1.30 93 1012.6
20260505111835 12 28 1.6 6.4 0.10 1.27 1.27 93 1012.7
20260505110335 12 56 0.0 0.0 0.10 1.24 1.24 93 1012.8
20260505101845 12 68 3.2 4.8 0.15 1.19 1.19 92 1012.7
20260505100342 12 95 0.0 0.0 0.13 1.14 1.14 92 1012.8
20260505094839 13 95 0.0 3.2 0.15 1.09 1.09 92 1012.8
20260505093331 12 96 3.2 6.4 0.13 1.07 1.07 92 1012.8
20260505091830 12 44 4.8 11.3 0.10 1.04 1.04 92 1012.6
20260505090343 12 102 4.8 6.4 0.08 1.02 1.02 92 1012.7
20260505084835 12 101 4.8 11.3 0.00 0.94 0.94 92 1012.6
20260505083329 12 129 3.2 9.7 0.00 0.94 0.94 92 1012.4
20260505081826 12 70 6.4 9.7 0.03 0.94 0.94 93 1012.3
20260505080343 12 103 1.6 11.3 0.08 0.94 0.94 93 1012.2
20260505074838 12 51 8.0 16.1 0.18 0.94 0.94 93 1012.2
20260505073329 12 55 8.0 19.3 0.38 0.94 0.94 93 1012.1
20260505071827 12 81 6.4 16.1 0.64 0.91 0.91 92 1012.1
20260505070330 12 57 3.2 12.9 0.76 0.86 0.86 92 1012.2
20260505064840 12 28 4.8 9.7 0.74 0.79 0.79 91 1012.2
20260505063336 12 11 4.8 8.0 0.53 0.56 0.56 90 1012.3
20260505061845 12 335 3.2 8.0 0.25 0.28 0.28 90 1012.5
20260505060339 12 340 1.6 9.7 0.10 0.10 0.10 89 1012.4
20260505054841 12 327 9.7 14.5 0.05 0.05 0.05 89 1011.9
20260505053336 12 330 1.6 4.8 0.03 0.03 0.03 88 1011.9
20260505051827 12 331 0.0 4.8 0.03 0.03 0.03 87 1011.6
20260505050340 12 316 1.6 4.8 0.00 0.00 0.00 86 1011.6
20260505040325 13 10 0.0 0.0 0.00 0.00 0.00 82 1011.4
20260505034828 13 10 0.0 0.0 0.00 0.00 0.00 81 1011.5
20260505033344 13 10 0.0 0.0 0.00 0.00 0.00 79 1011.6
20260505031838 13 10 0.0 0.0 0.00 0.00 0.00 78 1011.7
20260505030334 13 11 0.0 0.0 0.00 0.00 0.00 77 1011.7
20260505024845 14 11 0.0 4.8 0.00 0.00 0.00 75 1011.9
20260505023341 14 11 0.0 1.6 0.00 0.00 0.00 74 1012.0
20260505021831 14 11 1.6 6.4 0.00 0.00 0.00 74 1012.1
20260505020343 14 350 0.0 3.2 0.00 0.00 0.00 73 1012.4
20260505014845 14 348 1.6 4.8 0.00 0.00 0.00 72 1012.5
20260505013339 14 346 4.8 6.4 0.00 0.00 0.00 72 1012.8
20260505011838 14 320 1.6 9.7 0.00 0.00 0.00 72 1012.9
20260505010332 14 317 4.8 8.0 0.00 0.00 0.00 71 1013.1
20260505004827 14 295 4.8 6.4 0.00 0.00 0.00 73 1013.4
20260505003339 15 318 4.8 9.7 0.00 0.00 0.00 76 1013.7
20260505001838 15 335 4.8 6.4 0.00 0.00 0.00 76 1013.8
20260505000343 15 348 1.6 6.4 0.00 0.00 0.00 76 1014.1
20260504234841 15 308 0.0 4.8 0.00 0.00 0.00 76 1014.3
20260504233331 15 309 0.0 6.4 0.00 0.00 0.00 76 1014.5
20260504231842 15 325 1.6 8.0 0.00 0.00 0.00 76 1014.7
20260504230340 15 348 0.0 0.0 0.00 0.00 0.00 76 1014.6
20260504224832 15 348 0.0 0.0 0.00 0.00 0.00 75 1014.8
20260504223340 15 348 0.0 0.0 0.00 0.00 0.00 73 1015.0
20260504221831 15 348 0.0 0.0 0.00 0.00 0.00 71 1015.0
20260504220328 15 348 0.0 3.2 0.00 0.00 0.00 71 1015.2
20260504214841 15 328 0.0 3.2 0.00 0.00 0.00 70 1015.3
20260504213333 16 328 0.0 0.0 0.00 0.00 0.00 69 1015.4